Weather History for Shreveport, LA

Change the Weather History Date:

Saturday, February 23, 2013

  Actual Average Record
Temperature  
Mean Temperature 48 °F 52 °F  
Max Temperature 61 °F 64 °F 87 °F (2012)
Min Temperature 35 °F 42 °F 21 °F (1901)
Degree Days  
Heating Degree Days 17 13  
Month to date heating degree days 303 349  
Since 1 July heating degree days 1541 1821  
Cooling Degree Days 0 0  
Month to date cooling degree days 0 0  
Year to date cooling degree days 8 4  
Moisture  
Dew Point 36 °F    
Average Humidity 65    
Maximum Humidity 89    
Minimum Humidity 40    
Precipitation  
Precipitation 0.00 in 0.17 in 1.47 in (1885)
Month to date precipitation 2.45 3.95  
Year to date precipitation 7.21 8.15  
Snow  
Snow 0.00 in - - ()
Month to date snowfall 0.0  
Since 1 July snowfall 0.1  
Snow Depth 0.00 in    
Sea Level Pressure  
Sea Level Pressure 29.99 in    
Wind  
Wind Speed 5 mph (NNE)    
Max Wind Speed 12 mph    
Max Gust Speed 16 mph    
Visibility 10 miles    
Events      
T = Trace of Precipitation, MM = Missing Value Source: NWS Daily Summary

Daily Weather History Graph

Daily Weather History Graph

Search for Another Location

Airport:

Trip Planner

Search our weather history database for the weather conditions in past years. The results will help you decide how hot, cold, wet, or windy it might be!

Date:

Astronomy

Feb. 23, 2013 Rise Set
Actual Time 6:49 AM CST 6:08 PM CST
Civil Twilight 6:24 AM CST 6:33 PM CST
Nautical Twilight 5:56 AM CST 7:01 PM CST
Astronomical Twilight 5:27 AM CST 7:30 PM CST
Moon 4:22 PM CST (2/23) 5:07 AM CST (2/23)
Length of Visible Light 12h 08m
Length of Day
11h 18m
Waxing Gibbous, 95% of the Moon is Illuminated
Feb 23
Waxing Gibbous
Feb 25
Full
Mar 4
Last Quarter
Mar 11
New
Mar 19
First Quarter

Hourly Weather History & Observations

Time (CST) Temp. Windchill Dew Point Humidity Pressure Visibility Wind Dir Wind Speed Gust Speed Precip Events Conditions
12:56 AM 43.0 °F 38.8 °F 39.0 °F 86% 30.04 in 10.0 mi North 6.9 mph - N/A   Scattered Clouds
1:56 AM 41.0 °F 37.1 °F 37.9 °F 89% 30.02 in 10.0 mi NNE 5.8 mph - N/A   Mostly Cloudy
2:56 AM 41.0 °F 36.4 °F 37.0 °F 86% 30.01 in 10.0 mi North 6.9 mph - N/A   Clear
3:56 AM 39.0 °F 34.0 °F 35.1 °F 86% 29.99 in 10.0 mi NNE 6.9 mph - N/A   Mostly Cloudy
4:56 AM 37.9 °F 32.7 °F 34.0 °F 86% 30.00 in 10.0 mi NNE 6.9 mph - N/A   Mostly Cloudy
5:56 AM 37.0 °F 32.4 °F 33.1 °F 86% 30.01 in 10.0 mi NNE 5.8 mph - N/A   Mostly Cloudy
6:56 AM 36.0 °F 32.1 °F 32.0 °F 86% 30.04 in 10.0 mi NNE 4.6 mph - N/A   Mostly Cloudy
7:56 AM 37.0 °F 31.0 °F 33.1 °F 86% 30.04 in 10.0 mi ENE 8.1 mph - N/A   Mostly Cloudy
8:56 AM 41.0 °F 36.4 °F 35.1 °F 79% 30.05 in 10.0 mi ENE 6.9 mph - N/A   Mostly Cloudy
9:56 AM 46.0 °F 43.9 °F 35.1 °F 66% 30.05 in 10.0 mi ENE 4.6 mph - N/A   Mostly Cloudy
10:56 AM 50.0 °F - 35.1 °F 57% 30.02 in 10.0 mi East 4.6 mph - N/A   Scattered Clouds
11:56 AM 52.0 °F - 36.0 °F 54% 30.01 in 10.0 mi North 9.2 mph - N/A   Partly Cloudy
12:56 PM 55.0 °F - 36.0 °F 49% 29.98 in 10.0 mi North 4.6 mph - N/A   Partly Cloudy
1:56 PM 57.0 °F - 36.0 °F 45% 29.96 in 10.0 mi NW 4.6 mph - N/A   Partly Cloudy
2:56 PM 59.0 °F - 37.0 °F 44% 29.96 in 10.0 mi NNW 10.4 mph - N/A   Partly Cloudy
3:56 PM 59.0 °F - 35.1 °F 41% 29.96 in 10.0 mi NW 4.6 mph - N/A   Clear
4:56 PM 59.0 °F - 37.0 °F 44% 29.94 in 10.0 mi ENE 5.8 mph - N/A   Partly Cloudy
5:56 PM 54.0 °F - 37.0 °F 53% 29.95 in 10.0 mi NE 5.8 mph - N/A   Partly Cloudy
6:56 PM 50.0 °F - 37.9 °F 63% 29.96 in 10.0 mi Calm Calm - N/A   Partly Cloudy
7:56 PM 48.0 °F - 37.9 °F 68% 29.96 in 10.0 mi Calm Calm - N/A   Partly Cloudy
8:56 PM 44.1 °F - 37.9 °F 79% 29.97 in 10.0 mi Calm Calm - N/A   Partly Cloudy
9:56 PM 44.1 °F - 37.0 °F 76% 29.98 in 10.0 mi Calm Calm - N/A   Partly Cloudy
10:56 PM 42.1 °F - 37.0 °F 82% 29.98 in 10.0 mi Calm Calm - N/A   Clear
11:56 PM 41.0 °F - 36.0 °F 82% 29.98 in 10.0 mi Calm Calm - N/A   Clear